User: anonymous   Login
Location: ?ernice
(48.8383°N, 14.3803°E)
Time: 05:17:14
(UTC+00:00)
Language:

Cosmos 1833 Rocket - Orbit

View from above orbital plane
View from above orbital plane
View from above satellite
View from above satellite

Ground track
Ground track

The orbit data is extracted from the following two-line orbital elements,

1 17590U 87027B   24204.14280459  .00000281  00000-0  16379-3 0  9991
2 17590  71.0035  91.3072 0006926 298.3652  61.6773 14.16989396931010
Epoch (UTC): 22 July 2024 03:25:38
Eccentricity: 0.0006926
inclination: 71.0035°
perigee height: 830 km
apogee height: 840 km
right ascension of ascending node: 91.3072°
argument of perigee: 298.3652°
revolutions per day: 14.16989396
mean anomaly at epoch: 61.6773°
orbit number at epoch: 93101

The dashed part of the orbit path shows where the satellite is in the earth's shadow,  

DLR